Powrót do katalogu

BUCCANEER MM

AktywnyMilitariaSSO
NORAD 63245·PAYLOAD·🇦🇺 Australia

Wystrzelony Mar 15, 2025 z Vandenberg Space Force Base

Loading…

Następne Przeloty (najbliższe 24 godziny)

TLE

ŚwieżeSource: Space-Track

Epoka: Sep 14, 2026, 22:16 UTC

1 63245U 25052AM  26257.92847212  .00002109  00000-0  19765-3 0  9994
2 63245  97.6721 147.0630 0002368 284.2636  75.8321 14.95073555 82005

Śledź BUCCANEER MM w czasie rzeczywistym z AllMySat

Download on the App Store